2024/01/01 00:00,  74.574
2024/01/01 00:06,  74.580
2024/01/01 00:12,  74.594
2024/01/01 00:18,  74.584
2024/01/01 00:24,  74.565
2024/01/01 00:30,  74.578
2024/01/01 00:36,  74.568
2024/01/01 00:42,  74.575
2024/01/01 00:48,  74.583
2024/01/01 00:54,  74.591
2024/01/01 01:00,  74.568
2024/01/01 01:06,  74.569
2024/01/01 01:12,  74.574
2024/01/01 01:18,  74.598
2024/01/01 01:24,  74.607
2024/01/01 01:30,  74.588
2024/01/01 01:36,  74.585
2024/01/01 01:42,  74.566
2024/01/01 01:48,  74.562
2024/01/01 01:54,  74.564
2024/01/01 02:00,  74.568
2024/01/01 02:06,  74.579
2024/01/01 02:12,  74.576
2024/01/01 02:18,  74.588
2024/01/01 02:24,  74.588
2024/01/01 02:30,  74.591
2024/01/01 02:36,  74.584
2024/01/01 02:42,  74.568
2024/01/01 02:48,  74.577
2024/01/01 02:54,  74.572
2024/01/01 03:00,  74.578
2024/01/01 03:06,  74.567
2024/01/01 03:12,  74.562
2024/01/01 03:18,  74.563
2024/01/01 03:24,  74.570
2024/01/01 03:30,  74.581
2024/01/01 03:36,  74.601
2024/01/01 03:42,  74.605
2024/01/01 03:48,  74.572
2024/01/01 03:54,  74.574
2024/01/02 19:00,  74.521
2024/01/02 19:06,  74.499
2024/01/02 19:12,  74.503
2024/01/02 19:18,  74.496
2024/01/02 19:24,  74.503
2024/01/02 19:30,  74.517
2024/01/02 19:36,  74.521
2024/01/02 19:42,  74.509
2024/01/02 19:48,  74.504
2024/01/02 19:54,  74.495
2024/01/02 20:00,  74.521
2024/01/02 20:06,  74.517
2024/01/02 20:12,  74.519
2024/01/02 20:18,  74.520
2024/01/02 20:24,  74.506
2024/01/02 20:30,  74.510
2024/01/02 20:36,  74.515
2024/01/02 20:42,  74.513
2024/01/02 20:48,  74.485
2024/01/02 20:54,  74.501
2024/01/02 21:00,  74.501
2024/01/02 21:06,  74.508
2024/01/02 21:12,  74.513
2024/01/02 21:18,  74.506
2024/01/02 21:24,  74.505
2024/01/02 21:30,  74.490
2024/01/02 21:36,  74.491
2024/01/02 21:42,  74.498
2024/01/02 21:48,  74.500
2024/01/02 21:54,  74.515
2024/01/02 22:00,  74.509
2024/01/02 22:06,  74.505
2024/01/02 22:12,  74.493
2024/01/02 22:18,  74.508
2024/01/02 22:24,  74.502
2024/01/02 22:30,  74.502
2024/01/02 22:36,  74.485
2024/01/02 22:42,  74.479
2024/01/02 22:48,  74.481
2024/01/02 22:54,  74.492
2024/01/02 23:00,  74.484
2024/01/02 23:06,  74.492
2024/01/02 23:12,  74.504
2024/01/02 23:18,  74.497
2024/01/02 23:24,  74.495
2024/01/02 23:30,  74.502
2024/01/02 23:36,  74.498
2024/01/02 23:42,  74.504
2024/01/02 23:48,  74.484
2024/01/02 23:54,  74.492
2024/01/03 00:00,  74.506
2024/01/03 00:06,  74.505
2024/01/03 00:12,  74.496
2024/01/03 00:18,  74.486
2024/01/03 00:24,  74.494
2024/01/03 00:30,  74.505
2024/01/03 00:36,  74.514
2024/01/03 00:42,  74.522
2024/01/03 00:48,  74.516
2024/01/03 00:54,  74.506
2024/01/03 01:00,  74.512
2024/01/03 01:06,  74.499
2024/01/03 01:12,  74.510
2024/01/03 01:18,  74.514
2024/01/03 01:24,  74.522
2024/01/03 01:30,  74.524
2024/01/03 01:36,  74.523
2024/01/03 01:42,  74.504
2024/01/03 01:48,  74.517
2024/01/03 01:54,  74.526
2024/01/03 02:00,  74.518
2024/01/03 02:06,  74.523
2024/01/03 02:12,  74.527
2024/01/03 02:18,  74.513
2024/01/03 02:24,  74.533
2024/01/03 02:30,  74.521
2024/01/03 02:36,  74.523
2024/01/03 02:42,  74.521
2024/01/03 02:48,  74.524
2024/01/03 02:54,  74.521
2024/01/03 03:00,  74.523
2024/01/03 03:06,  74.498
2024/01/03 03:12,  74.503
2024/01/03 03:18,  74.485
2024/01/03 03:24,  74.480
2024/01/03 03:30,  74.511
2024/01/03 03:36,  74.521
2024/01/03 03:42,  74.520
2024/01/03 03:48,  74.510
2024/01/03 03:54,  74.517
2024/01/03 04:00,  74.521
2024/01/03 04:06,  74.497
2024/01/03 04:12,  74.505
2024/01/03 04:18,  74.491
2024/01/03 04:24,  74.505
2024/01/03 04:30,  74.511
2024/01/03 04:36,  74.510
2024/01/03 04:42,  74.521
2024/01/03 04:48,  74.530
2024/01/03 04:54,  74.521
2024/01/03 05:00,  74.519
2024/01/03 05:06,  74.505
2024/01/03 05:12,  74.504
2024/01/03 05:18,  74.511
2024/01/03 05:24,  74.512
2024/01/03 05:30,  74.510
2024/01/03 05:36,  74.522
2024/01/03 05:42,  74.533
2024/01/03 05:48,  74.548
2024/01/03 05:54,  74.556
2024/01/03 06:00,  74.540
2024/01/03 06:06,  74.534
2024/01/03 06:12,  74.528
2024/01/03 06:18,  74.527
2024/01/03 06:24,  74.524
2024/01/03 06:30,  74.518
2024/01/03 06:36,  74.504
2024/01/03 06:42,  74.504
2024/01/03 06:48,  74.505
2024/01/03 06:54,  74.508
2024/01/03 07:00,  74.535
2024/01/03 07:06,  74.533
2024/01/03 07:12,  74.532
2024/01/03 07:18,  74.523
2024/01/03 07:24,  74.507
2024/01/03 07:30,  74.496
2024/01/03 07:36,  74.521
2024/01/03 07:42,  74.526
2024/01/03 07:48,  74.519
2024/01/03 07:54,  74.519
2024/01/03 08:00,  74.510
2024/01/03 08:06,  74.518
2024/01/03 08:12,  74.517
2024/01/03 08:18,  74.522
2024/01/03 08:24,  74.524
2024/01/03 08:30,  74.517
2024/01/03 08:36,  74.506
2024/01/03 08:42,  74.529
2024/01/03 08:48,  74.523
2024/01/03 09:00,  74.510
2024/01/03 09:06,  74.501
2024/01/03 09:12,  74.519
2024/01/03 09:18,  74.528
2024/01/03 09:24,  74.530
2024/01/03 09:30,  74.523
2024/01/03 09:36,  74.519
2024/01/03 09:42,  74.526
2024/01/03 09:48,  74.543
2024/01/03 09:54,  74.549
2024/01/03 10:00,  74.550
2024/01/03 10:06,  74.534
2024/01/03 10:12,  74.520
2024/01/03 10:18,  74.520
2024/01/03 10:24,  74.510
2024/01/03 10:30,  74.530
2024/01/03 10:36,  74.534
2024/01/03 10:42,  74.541
2024/01/03 10:48,  74.556
2024/01/03 10:54,  74.554
2024/01/03 11:00,  74.541
2024/01/03 11:06,  74.524
2024/01/03 11:12,  74.530
2024/01/03 11:18,  74.548
2024/01/03 11:24,  74.556
2024/01/03 11:30,  74.554
2024/01/03 11:36,  74.543
2024/01/03 11:42,  74.549
2024/01/03 11:48,  74.526
2024/01/03 11:54,  74.529
2024/01/03 12:00,  74.539
2024/01/03 12:06,  74.543
2024/01/03 12:12,  74.542
2024/01/03 12:18,  74.547
2024/01/03 12:24,  74.536
2024/01/03 12:30,  74.538
2024/01/03 12:36,  74.542
2024/01/03 12:42,  74.537
2024/01/03 12:48,  74.543
2024/01/03 12:54,  74.547
2024/01/03 13:00,  74.537
2024/01/03 13:06,  74.535
2024/01/03 13:12,  74.532
2024/01/03 13:18,  74.540
2024/01/03 13:24,  74.538
2024/01/03 13:30,  74.539
2024/01/03 13:36,  74.527
2024/01/03 13:42,  74.548
2024/01/03 13:48,  74.539
2024/01/03 13:54,  74.526
2024/01/03 14:00,  74.530
2024/01/03 14:06,  74.539
2024/01/03 14:12,  74.528
2024/01/03 14:18,  74.542
2024/01/03 14:24,  74.552
2024/01/03 14:30,  74.545
2024/01/03 14:36,  74.539
2024/01/03 14:42,  74.522
2024/01/03 14:48,  74.520
2024/01/03 14:54,  74.534
2024/01/03 15:00,  74.529
2024/01/03 15:06,  74.542
2024/01/03 15:12,  74.540
2024/01/03 15:18,  74.533
2024/01/03 15:24,  74.537
2024/01/03 15:30,  74.526
2024/01/03 15:36,  74.537
2024/01/03 15:42,  74.549
2024/01/03 15:48,  74.540
2024/01/03 15:54,  74.527
2024/01/03 16:00,  74.541
2024/01/03 16:06,  74.547
2024/01/03 16:12,  74.534
2024/01/03 16:18,  74.527
2024/01/03 16:24,  74.536
2024/01/03 16:30,  74.521
2024/01/03 16:36,  74.530
2024/01/03 16:42,  74.539
2024/01/03 16:48,  74.551
2024/01/03 16:54,  74.544
2024/01/03 17:00,  74.532
2024/01/03 17:06,  74.539
2024/01/03 17:12,  74.522
2024/01/03 17:18,  74.539
2024/01/03 17:24,  74.530
2024/01/03 17:30,  74.536
2024/01/03 17:36,  74.522
2024/01/03 17:42,  74.528
2024/01/03 17:48,  74.524
2024/01/03 17:54,  74.519
2024/01/03 18:00,  74.528
2024/01/03 18:06,  74.528
2024/01/03 18:12,  74.531
2024/01/03 18:18,  74.537
2024/01/03 18:24,  74.534
2024/01/03 18:30,  74.523
2024/01/03 18:36,  74.537
2024/01/03 18:42,  74.533
2024/01/03 18:48,  74.520
2024/01/03 18:54,  74.524
2024/01/03 19:00,  74.538
2024/01/03 19:06,  74.535
2024/01/03 19:12,  74.537
2024/01/03 19:18,  74.539
2024/01/03 19:24,  74.528
2024/01/03 19:30,  74.526
2024/01/03 19:36,  74.531
2024/01/03 19:42,  74.535
2024/01/03 19:48,  74.541
2024/01/03 19:54,  74.510
2024/01/03 20:00,  74.524
2024/01/03 20:06,  74.531
2024/01/03 20:12,  74.547
2024/01/03 20:18,  74.538
2024/01/03 20:24,  74.535
2024/01/03 20:30,  74.535
2024/01/03 20:36,  74.541
2024/01/03 20:42,  74.546
2024/01/03 20:48,  74.556
2024/01/03 22:00,  74.542
2024/01/03 22:06,  74.545
2024/01/03 22:12,  74.548
2024/01/03 22:18,  74.548
2024/01/03 22:24,  74.543
2024/01/03 22:30,  74.542
2024/01/03 22:36,  74.550
2024/01/03 22:42,  74.541
2024/01/03 22:48,  74.544
2024/01/03 22:54,  74.542
2024/01/03 23:00,  74.529
2024/01/03 23:06,  74.532
2024/01/03 23:12,  74.537
2024/01/03 23:18,  74.543
2024/01/03 23:24,  74.533
2024/01/03 23:30,  74.540
2024/01/03 23:36,  74.547
2024/01/03 23:42,  74.536
2024/01/03 23:48,  74.540
2024/01/03 23:54,  74.522
2024/01/04 00:00,  74.527
2024/01/04 00:06,  74.537
2024/01/04 00:12,  74.549
2024/01/04 00:24,  74.545
2024/01/04 00:30,  74.541
2024/01/04 00:36,  74.553
2024/01/04 00:42,  74.537
2024/01/04 00:48,  74.529
2024/01/04 00:54,  74.533
2024/01/04 01:00,  74.527
2024/01/04 01:06,  74.541
2024/01/04 01:12,  74.550
2024/01/04 01:18,  74.546
2024/01/04 01:24,  74.551
2024/01/04 01:30,  74.552
2024/01/04 01:36,  74.544
2024/01/04 01:42,  74.541
2024/01/04 01:48,  74.528
2024/01/04 01:54,  74.534
2024/01/04 02:00,  74.538
2024/01/04 02:06,  74.540
2024/01/04 02:12,  74.541
2024/01/04 02:18,  74.552
2024/01/04 02:24,  74.545
2024/01/04 02:30,  74.551
2024/01/04 02:36,  74.540
2024/01/04 02:42,  74.519
2024/01/04 02:48,  74.529
2024/01/04 02:54,  74.517
2024/01/04 03:00,  74.547
2024/01/04 03:06,  74.545
2024/01/04 03:12,  74.547
2024/01/04 03:18,  74.529
2024/01/04 03:24,  74.534
2024/01/04 03:30,  74.543
2024/01/04 03:36,  74.551
2024/01/04 03:42,  74.533
2024/01/04 03:48,  74.532
2024/01/04 03:54,  74.540
2024/01/04 04:00,  74.545
2024/01/04 04:06,  74.548
2024/01/04 04:12,  74.528
2024/01/04 04:18,  74.521
2024/01/04 04:24,  74.523
2024/01/04 04:30,  74.522
2024/01/04 04:36,  74.532
2024/01/04 04:42,  74.545
2024/01/04 04:48,  74.533
2024/01/04 04:54,  74.538
2024/01/04 05:00,  74.535
2024/01/04 05:06,  74.534
2024/01/04 05:12,  74.527
2024/01/04 05:18,  74.493
2024/01/04 05:24,  74.515
2024/01/04 05:30,  74.528
2024/01/04 05:36,  74.539
2024/01/04 05:42,  74.519
2024/01/04 05:48,  74.546
2024/01/04 05:54,  74.550
2024/01/04 06:00,  74.545
2024/01/04 06:06,  74.551
2024/01/04 06:12,  74.550
2024/01/04 06:18,  74.561
2024/01/04 06:24,  74.546
2024/01/04 06:30,  74.540
2024/01/04 06:36,  74.515
2024/01/04 06:42,  74.511
2024/01/04 06:48,  74.512
2024/01/04 06:54,  74.509
2024/01/04 07:00,  74.514
2024/01/04 07:06,  74.524
2024/01/04 07:12,  74.536
2024/01/04 07:18,  74.546
2024/01/04 07:24,  74.558
2024/01/04 07:30,  74.569
2024/01/04 07:36,  74.559
2024/01/04 07:42,  74.562
2024/01/04 07:48,  74.529
2024/01/04 08:00,  74.526
2024/01/04 08:06,  74.534
2024/01/04 08:12,  74.546
2024/01/04 08:18,  74.543
2024/01/04 08:24,  74.511
2024/01/04 08:30,  74.533
2024/01/04 08:36,  74.558
2024/01/04 08:42,  74.560
2024/01/04 08:48,  74.568
2024/01/04 08:54,  74.566
2024/01/04 09:00,  74.553
2024/01/04 09:06,  74.539
2024/01/04 09:12,  74.546
2024/01/04 09:18,  74.540
2024/01/04 09:24,  74.538
2024/01/04 09:30,  74.536
2024/01/04 09:36,  74.532
2024/01/04 09:42,  74.546
2024/01/04 09:48,  74.547
2024/01/04 09:54,  74.552
2024/01/04 10:00,  74.553
2024/01/04 10:06,  74.554
2024/01/04 10:12,  74.539
2024/01/04 10:18,  74.547
2024/01/04 10:24,  74.548
2024/01/04 10:30,  74.543
2024/01/04 10:36,  74.566
2024/01/04 10:42,  74.555
2024/01/04 10:48,  74.539
2024/01/04 10:54,  74.555
2024/01/04 11:00,  74.540
2024/01/04 11:06,  74.536
2024/01/04 11:12,  74.520
2024/01/04 11:18,  74.532
2024/01/04 11:24,  74.534
2024/01/04 11:30,  74.535
2024/01/04 11:36,  74.540
2024/01/04 11:42,  74.538
2024/01/04 11:48,  74.546
2024/01/04 11:54,  74.545
2024/01/04 12:00,  74.545
2024/01/04 12:06,  74.563
2024/01/04 12:12,  74.541
2024/01/04 12:18,  74.559
2024/01/04 12:24,  74.552
2024/01/04 12:30,  74.528
2024/01/04 12:36,  74.549
2024/01/04 12:42,  74.551
2024/01/04 12:48,  74.578
2024/01/04 12:54,  74.567
2024/01/04 13:00,  74.540
2024/01/04 13:06,  74.565
2024/01/04 13:12,  74.557
2024/01/04 13:18,  74.569
2024/01/04 13:24,  74.562
2024/01/04 13:30,  74.564
2024/01/04 13:36,  74.559
2024/01/04 13:42,  74.572
2024/01/04 13:48,  74.554
2024/01/04 14:00,  74.557
2024/01/04 14:06,  74.550
2024/01/04 14:12,  74.553
2024/01/04 14:18,  74.546
2024/01/04 14:24,  74.546
2024/01/04 14:30,  74.547
2024/01/04 14:36,  74.535
2024/01/04 14:42,  74.494
2024/01/04 14:48,  74.530
2024/01/04 14:54,  74.541
2024/01/04 15:00,  74.536
2024/01/04 15:06,  74.540
2024/01/04 15:12,  74.537
2024/01/04 15:18,  74.544
2024/01/04 15:24,  74.543
2024/01/04 15:30,  74.542
2024/01/04 15:36,  74.530
2024/01/04 15:42,  74.529
2024/01/04 15:48,  74.525
2024/01/04 15:54,  74.523
2024/01/04 16:00,  74.512
2024/01/04 16:06,  74.535
2024/01/04 16:12,  74.540
2024/01/04 16:18,  74.535
2024/01/04 16:24,  74.530
2024/01/04 16:30,  74.554
2024/01/04 16:36,  74.536
2024/01/04 16:42,  74.538
2024/01/04 16:54,  74.517
2024/01/04 17:00,  74.481
2024/01/04 17:06,  74.504
2024/01/04 17:12,  74.536
2024/01/04 17:30,  74.530
2024/01/04 17:48,  74.525
2024/01/04 18:36,  74.515
2024/01/04 19:24,  74.552
2024/01/04 19:48,  74.507
2024/01/04 21:18,  74.542
2024/01/04 22:30,  74.553
2024/01/04 22:48,  74.532
2024/01/04 22:54,  74.509
2024/01/04 23:00,  74.549
2024/01/04 23:06,  74.560
2024/01/04 23:12,  74.556
2024/01/04 23:18,  74.567
2024/01/04 23:24,  74.537
2024/01/04 23:30,  74.539
2024/01/04 23:36,  74.561
2024/01/04 23:42,  74.561
2024/01/04 23:48,  74.551
2024/01/04 23:54,  74.549
2024/01/05 00:00,  74.540
2024/01/05 00:06,  74.529
2024/01/05 00:12,  74.515
2024/01/05 00:18,  74.539
2024/01/05 00:24,  74.542
2024/01/05 00:30,  74.508
2024/01/05 00:36,  74.521
2024/01/05 00:42,  74.511
2024/01/05 00:48,  74.512
2024/01/05 00:54,  74.524
2024/01/05 01:06,  74.533
2024/01/05 01:12,  74.525
2024/01/05 01:18,  74.531
2024/01/05 01:24,  74.551
2024/01/05 01:30,  74.559
2024/01/05 01:36,  74.542
2024/01/05 01:42,  74.539
2024/01/05 01:48,  74.521
2024/01/05 01:54,  74.517
2024/01/05 02:00,  74.535
2024/01/05 02:06,  74.546
2024/01/05 02:12,  74.552
2024/01/05 02:18,  74.542
2024/01/05 02:24,  74.539
2024/01/05 02:30,  74.547
2024/01/05 02:36,  74.558
2024/01/05 02:42,  74.555
2024/01/05 02:48,  74.554
2024/01/05 02:54,  74.542
2024/01/05 03:00,  74.537
2024/01/05 03:06,  74.551
2024/01/05 03:12,  74.541
2024/01/05 03:18,  74.537
2024/01/05 03:24,  74.549
2024/01/05 03:30,  74.555
2024/01/05 03:36,  74.549
2024/01/05 03:42,  74.557
2024/01/05 03:48,  74.563
2024/01/05 03:54,  74.545
2024/01/05 04:00,  74.531
2024/01/05 04:06,  74.551
2024/01/05 04:12,  74.542
2024/01/05 04:18,  74.548
2024/01/05 04:24,  74.555
2024/01/05 04:30,  74.544
2024/01/05 04:36,  74.534
2024/01/05 04:42,  74.517
2024/01/05 04:48,  74.531
2024/01/05 04:54,  74.548
2024/01/05 07:00,  74.495
2024/01/05 07:06,  74.515
2024/01/05 07:12,  74.515
2024/01/05 07:18,  74.528
2024/01/05 07:24,  74.537
2024/01/05 07:30,  74.528
2024/01/05 07:36,  74.510
2024/01/05 07:42,  74.517
2024/01/05 07:48,  74.520
2024/01/05 07:54,  74.522
2024/01/05 08:00,  74.525
2024/01/05 08:06,  74.537
2024/01/05 08:12,  74.537
2024/01/05 08:18,  74.539
2024/01/05 08:24,  74.535
2024/01/05 08:30,  74.542
2024/01/05 08:36,  74.541
2024/01/05 08:42,  74.533
2024/01/05 08:48,  74.529
2024/01/05 08:54,  74.530
2024/01/05 09:00,  74.527
2024/01/05 09:06,  74.535
2024/01/05 09:12,  74.529
2024/01/05 09:18,  74.522
2024/01/05 09:24,  74.521
2024/01/05 09:30,  74.511
2024/01/05 09:36,  74.528
2024/01/05 09:42,  74.542
2024/01/05 09:48,  74.528
2024/01/05 09:54,  74.517
2024/01/05 10:00,  74.520
2024/01/05 10:06,  74.520
2024/01/05 10:12,  74.522
2024/01/05 10:18,  74.502
2024/01/05 10:24,  74.497
2024/01/05 10:30,  74.492
2024/01/05 10:36,  74.501
2024/01/05 10:42,  74.499
2024/01/05 10:48,  74.507
2024/01/05 10:54,  74.508
2024/01/05 11:00,  74.517
2024/01/05 11:06,  74.524
2024/01/05 11:12,  74.512
2024/01/05 11:18,  74.528
2024/01/05 11:24,  74.536
2024/01/05 11:30,  74.517
2024/01/05 11:36,  74.495
2024/01/05 11:42,  74.494
2024/01/05 11:48,  74.482
2024/01/05 11:54,  74.512
2024/01/05 12:00,  74.516
2024/01/05 12:12,  74.507
2024/01/05 12:18,  74.506
2024/01/05 12:24,  74.529
2024/01/05 12:30,  74.538
2024/01/05 12:36,  74.538
2024/01/05 12:42,  74.505
2024/01/05 12:48,  74.507
2024/01/05 12:54,  74.504
2024/01/05 13:00,  74.508
2024/01/05 13:06,  74.518
2024/01/05 13:12,  74.507
2024/01/05 13:18,  74.514
2024/01/05 13:24,  74.526
2024/01/05 13:30,  74.518
2024/01/05 13:36,  74.515
2024/01/05 13:42,  74.522
2024/01/05 13:48,  74.509
2024/01/05 13:54,  74.523
2024/01/05 14:00,  74.527
2024/01/05 14:06,  74.539
2024/01/05 14:12,  74.541
2024/01/05 14:18,  74.544
2024/01/05 14:24,  74.531
2024/01/05 14:30,  74.524
2024/01/05 14:36,  74.518
2024/01/05 14:42,  74.516
2024/01/05 14:48,  74.516
2024/01/05 14:54,  74.514
2024/01/05 15:00,  74.521
2024/01/05 15:06,  74.516
2024/01/05 15:12,  74.518
2024/01/05 15:18,  74.534
2024/01/05 15:24,  74.532
2024/01/05 15:30,  74.538
2024/01/05 15:36,  74.536
2024/01/05 15:42,  74.530
2024/01/05 15:48,  74.522
2024/01/05 15:54,  74.526
2024/01/05 16:00,  74.513
2024/01/05 16:06,  74.499
2024/01/05 16:12,  74.502
2024/01/05 16:18,  74.513
2024/01/05 16:24,  74.510
2024/01/05 16:30,  74.516
2024/01/05 16:36,  74.513
2024/01/05 16:42,  74.505
2024/01/05 16:48,  74.501
2024/01/05 16:54,  74.505
2024/01/05 17:00,  74.522
2024/01/05 17:06,  74.519
2024/01/05 17:12,  74.510
2024/01/05 17:18,  74.520
2024/01/05 17:24,  74.516
2024/01/05 17:30,  74.509
2024/01/05 17:36,  74.508
2024/01/05 17:42,  74.512
2024/01/05 17:48,  74.522
2024/01/05 17:54,  74.515
2024/01/05 18:00,  74.505
2024/01/05 18:06,  74.500
2024/01/05 18:12,  74.514
2024/01/05 18:18,  74.513
2024/01/05 18:24,  74.519
2024/01/05 18:30,  74.514
2024/01/05 18:36,  74.515
2024/01/05 18:42,  74.515
2024/01/05 18:48,  74.508
2024/01/05 18:54,  74.509
2024/01/05 19:00,  74.503
2024/01/05 19:06,  74.497
2024/01/05 19:12,  74.522
2024/01/05 19:18,  74.509
2024/01/05 19:24,  74.514
2024/01/05 19:30,  74.518
2024/01/05 19:36,  74.521
2024/01/05 19:42,  74.523
2024/01/05 19:48,  74.519
2024/01/05 19:54,  74.524
2024/01/05 20:00,  74.523
2024/01/05 20:06,  74.507
2024/01/05 20:12,  74.518
2024/01/05 20:18,  74.514
2024/01/05 20:24,  74.516
2024/01/05 20:30,  74.513
2024/01/05 20:36,  74.525
2024/01/05 20:42,  74.528
2024/01/05 20:48,  74.524
2024/01/05 20:54,  74.525
2024/01/05 21:00,  74.542
2024/01/05 21:06,  74.528
2024/01/05 21:12,  74.522
2024/01/05 21:18,  74.515
2024/01/05 21:24,  74.506
2024/01/05 21:30,  74.516
2024/01/05 21:36,  74.543
2024/01/05 21:42,  74.534
2024/01/05 21:48,  74.520
2024/01/05 21:54,  74.517
2024/01/05 22:00,  74.518
2024/01/05 22:06,  74.521
2024/01/05 22:12,  74.542
2024/01/05 22:18,  74.527
2024/01/05 22:24,  74.529
2024/01/05 22:30,  74.516
2024/01/05 22:36,  74.509
2024/01/05 22:42,  74.509
2024/01/05 22:48,  74.542
2024/01/05 22:54,  74.516
2024/01/05 23:00,  74.519
2024/01/05 23:06,  74.513
2024/01/05 23:12,  74.532
2024/01/05 23:18,  74.534
2024/01/05 23:24,  74.526
2024/01/05 23:30,  74.539
2024/01/05 23:36,  74.527
2024/01/05 23:42,  74.513
2024/01/05 23:48,  74.530
2024/01/05 23:54,  74.524
2024/01/06 00:00,  74.542
2024/01/06 00:06,  74.549
2024/01/06 00:12,  74.528
2024/01/06 00:18,  74.517
2024/01/06 00:24,  74.527
2024/01/06 00:30,  74.525
2024/01/06 00:36,  74.518
2024/01/06 00:42,  74.529
2024/01/06 00:48,  74.536
2024/01/06 00:54,  74.507
2024/01/06 01:00,  74.533
2024/01/06 01:06,  74.540
2024/01/06 01:12,  74.551
2024/01/06 01:18,  74.561
2024/01/06 01:24,  74.560
2024/01/06 01:30,  74.526
2024/01/06 01:36,  74.516
2024/01/06 01:42,  74.545
2024/01/06 01:48,  74.520
2024/01/06 01:54,  74.539
2024/01/06 02:00,  74.532
2024/01/06 02:06,  74.523
2024/01/06 02:12,  74.536
2024/01/06 02:18,  74.576
2024/01/06 02:24,  74.564
2024/01/06 02:30,  74.549
2024/01/06 02:36,  74.550
2024/01/06 02:42,  74.529
2024/01/06 02:48,  74.545
2024/01/06 02:54,  74.547
2024/01/06 03:00,  74.538
2024/01/06 03:06,  74.532
2024/01/06 03:12,  74.534
2024/01/06 03:18,  74.527
2024/01/06 03:24,  74.548
2024/01/06 03:30,  74.554
2024/01/06 03:36,  74.563
2024/01/06 03:42,  74.559
2024/01/06 03:48,  74.547
2024/01/06 03:54,  74.560
2024/01/06 04:00,  74.537
2024/01/06 04:06,  74.522
2024/01/06 04:12,  74.517
2024/01/06 04:18,  74.544
2024/01/06 04:24,  74.568
2024/01/06 04:30,  74.561
2024/01/06 04:36,  74.570
2024/01/06 04:42,  74.558
2024/01/06 04:48,  74.541
2024/01/06 04:54,  74.565
2024/01/06 05:00,  74.556
2024/01/06 05:06,  74.564
2024/01/06 05:12,  74.561
2024/01/06 05:18,  74.559
2024/01/06 05:24,  74.540
2024/01/06 05:30,  74.542
2024/01/06 05:36,  74.550
2024/01/06 05:42,  74.551
2024/01/06 05:48,  74.537
2024/01/06 05:54,  74.548
2024/01/06 06:00,  74.565
2024/01/06 06:06,  74.576
2024/01/06 06:18,  74.576
2024/01/06 06:30,  74.543
2024/01/06 06:36,  74.556
2024/01/06 06:42,  74.555
2024/01/06 06:48,  74.557
2024/01/06 06:54,  74.551
2024/01/06 07:00,  74.573
2024/01/06 07:42,  74.574
2024/01/06 07:48,  74.555
2024/01/06 08:00,  74.586
2024/01/06 08:12,  74.557
2024/01/06 08:18,  74.557
2024/01/06 08:24,  74.538
2024/01/06 08:30,  74.563
2024/01/06 08:36,  74.565
2024/01/06 08:42,  74.540
2024/01/06 08:48,  74.543
2024/01/06 08:54,  74.544
2024/01/06 22:00,  74.618
2024/01/06 22:12,  74.614
2024/01/06 22:18,  74.553
2024/01/06 22:24,  74.564
2024/01/06 22:30,  74.582
2024/01/06 22:36,  74.592
2024/01/06 22:42,  74.634
2024/01/06 22:48,  74.601
2024/01/06 22:54,  74.582
2024/01/06 23:00,  74.561
2024/01/06 23:06,  74.541
2024/01/06 23:12,  74.586
2024/01/06 23:18,  74.602
2024/01/06 23:24,  74.606
2024/01/06 23:30,  74.595
2024/01/06 23:36,  74.563
2024/01/06 23:42,  74.565
2024/01/06 23:48,  74.591
2024/01/06 23:54,  74.586
2024/01/07 00:00,  74.583
2024/01/07 00:06,  74.580
2024/01/07 00:12,  74.586
2024/01/07 00:18,  74.586
2024/01/07 00:24,  74.569
2024/01/07 00:30,  74.560
2024/01/07 00:36,  74.577
2024/01/07 00:42,  74.592
2024/01/07 00:48,  74.553
2024/01/07 00:54,  74.561
2024/01/07 01:00,  74.588
2024/01/07 01:06,  74.565
2024/01/07 01:12,  74.584
2024/01/07 01:18,  74.589
2024/01/07 01:24,  74.574
2024/01/07 01:30,  74.597
2024/01/07 01:36,  74.575
2024/01/07 01:42,  74.575
2024/01/07 01:48,  74.581
2024/01/07 01:54,  74.575
2024/01/07 02:00,  74.585
2024/01/07 02:06,  74.565
2024/01/07 02:12,  74.561
2024/01/07 02:18,  74.587
2024/01/07 02:24,  74.576
2024/01/07 02:30,  74.609
2024/01/07 02:36,  74.625
2024/01/07 02:42,  74.616
2024/01/07 02:54,  74.581
2024/01/07 03:00,  74.566
2024/01/07 03:06,  74.598
2024/01/07 03:12,  74.605
2024/01/07 03:18,  74.623
2024/01/07 03:24,  74.592
2024/01/07 03:30,  74.576
2024/01/07 03:36,  74.583
2024/01/07 03:42,  74.590
2024/01/07 03:48,  74.594
2024/01/07 03:54,  74.623
2024/01/07 10:00,  74.573
2024/01/07 10:06,  74.586
2024/01/07 10:12,  74.566
2024/01/07 10:18,  74.573
2024/01/07 10:24,  74.532
2024/01/07 10:30,  74.555
2024/01/07 10:36,  74.570
2024/01/07 10:42,  74.553
2024/01/07 10:48,  74.555
2024/01/07 10:54,  74.541
2024/01/07 11:00,  74.557
2024/01/07 11:06,  74.551
2024/01/07 11:12,  74.555
2024/01/07 11:18,  74.564
2024/01/07 11:24,  74.581
2024/01/07 11:30,  74.577
2024/01/07 11:36,  74.580
2024/01/07 11:42,  74.560
2024/01/07 11:48,  74.509
2024/01/07 11:54,  74.518
2024/01/07 16:00,  74.578
2024/01/07 16:06,  74.559
2024/01/07 16:12,  74.553
2024/01/07 16:18,  74.533
2024/01/07 16:24,  74.543
2024/01/07 16:30,  74.569